Location: Drummondville
(45.8830°N, 72.4830°W)
Time: 14:43:47
(UTC-05:00)

N. Korean satellite - Pass Details

Date: 18 November 2017
Orbit: 460 x 515 km, 97.2° (Epoch: 18 November)

Event Time Altitude Azimuth Distance (km) Brightness Sun altitude
Rises 18:47:28 0° 207° (SSW) 2,487 10.5 -26.3°
Reaches altitude 10° 18:50:10 10° 231° (SW) 1,626 9.9 -26.7°
Maximum altitude 18:52:17 15° 269° (W) 1,345 9.7 -27.1°
Drops below altitude 10° 18:54:26 10° 306° (NW) 1,651 9.9 -27.5°
Sets 18:57:13 0° 330° (NNW) 2,548 10.6 -28.0°
